{"data":{"norad_id":53215,"epoch":"2026-09-19T22:38:39.923232Z","epoch_age_seconds":120339,"freshness":"FRESH","line1":"1 53215U 22084AC  26262.94351763  .00000563  00000+0  19756-4 0  9993","line2":"2 53215  97.2844 318.6270 0001348  91.2730 268.8668 15.33435803229188","mean_motion":15.33435803,"eccentricity":0.0001348,"inclination_deg":97.2844,"raan_deg":318.627,"arg_perigee_deg":91.273,"mean_anomaly_deg":268.8668,"bstar":1.9756e-5,"rev_number":22918,"period_min":93.906767872695,"perigee_km":464.64800664008,"apogee_km":466.49307019243,"semimajor_km":6843.7075384163,"source":"CELESTRAK","updated_at":"2026-09-20T09:00:40.193835Z"}}